STARLINK-36851, 67943

Orbit data source: Space-Track

STARLINK-36851, 67943 is a payload satellite owned by SpaceX/Seattle (US) in LEO that was launched on Tue, 24 Feb 2026 UTC via an FALCON 9 launch vehicle from the Air Force Eastern Test Range (AFETR). Payload-class satellites include a variety of spacecraft equipped with specific instruments for various scientific and technological missions. These include communications satellites like Starlink; space stations such as the ISS; scientific satellites like the Hubble; Earth observation satellites from companies like Planet Labs, Umbra, and HawkEye 360; GPS; miniature CubeSats for education and research; and military/defense satellites.

Loading next visibility...
Identifier
67943, 2026-037M
Orbit
LEO
Country
Flag of USUS
Related business
Manufacturer
SpaceX/Seattle
Mission
Operational Commercial Communications
Bus & Motor
STARLINK V2MO, Unknown motor
Mass
575 kg wet, ~530 kg dry
Launch date (UTC)
2026-02-24 (4 months ago)
Launch vehicle
FALCON 9
Launch site
Air Force Eastern Test Range (AFETR)
Object type
Payload
Rocket body
Debris
Shape & HBR
Box + 2 Pan, 17.7 m
Radar Cross Section
36.964 m², Large (>1 m²)

Expand to show TLE details & history
Last TLE update: 11 hours ago

TLE from 11 hours ago
0 STARLINK-36851
1 67943U 26037M   26171.42587789  .00016769  00000-0  61845-3 0  9990
2 67943  43.0005 330.4546 0001570 239.5276 120.5421 15.27530146 19059
Epoch: 2026-06-20T10:13Z
TLE epoch observation values (Epoch: 2026-06-20T10:13:15.849Z)
Latitude
-0°
Longitude
-91.50212°
Altitude
483.521 km
Speed
7.625 km/s
True Right ascension
22h 01m 49s
True Declination
0° 00' 00"
Sunlit
Object was in full shadow at epoch
Visualization orbit readout
Latitude
Unknown
Longitude
Unknown
Altitude
Unknown
Speed
Unknown
Apparent Right ascension
Unknown
Apparent Declination
Unknown
Sunlit
N/A
Visualization observer readout
Local Sidereal Time
08:33:48
Azimuth
Unknown
Elevation
Unknown
Doppler factor
Unknown
Orbital elements
Apogee altitude
486.221 km
Perigee altitude
484.066 km
Semi-major axis
6,863.28 km
Eccentricity
0.00016
Inclination
43.0005°
RAAN
330.4546°
Arg. of periapsis
239.5276°
True anomaly
120.55759°
Mean anomaly
120.5421°
Eccentric anomaly
120.54985°
Mean motion
3.81721 °/min
Orbital period
94.31 mins
BSTAR
0.00061845
Loading maneuver chart data...
Computing Atmospheric mass density...
Loading historical data...
Loading historical data...
Loading historical data...
Loading historical data...
Loading historical data...
Loading historical data...
Loading historical data...

Documentation

Showing up to 5 results
|